Weather in Bismarck

United States     46˚47′42″N   100˚46′59″W
temp.,
°C
wind,
m/s
gust,
m/s
humid.,
%
clouds,
%
prec.,
mm/h
press.,
hPa
HPBL,
m
30 november, mon
mon3000:00−4˚ssw33461 0.0 102865
03:00−4˚s36440 0.0 1026107
06:00−4˚s384128 0.0 1023177
09:00−3˚s38340 0.0 1021206
12:00+3˚ssw46250 0.0 1017320
15:00+5˚s46270 0.0 1013346
18:00s36400 0.0 101396
21:00−1˚s38470 0.0 1012130
1 december, tue
tue100:00−2˚s34460 0.0 101281
03:00−2˚wsw333813 0.0 101347
06:00−1˚wnw394826 0.0 1014177
09:00wnw3106269 0.0 1015285
12:00+4˚nw7126184 0.0 1017776
15:00+3˚nw81260100 0.0 10191046
18:00+1˚nnw71163100 0.0 10231051
21:00−2˚nw5117099 0.0 1026754
2 december, wed
wed200:00−3˚nnw487099 0.0 1029621
03:00−5˚wnw378457 0.0 1031208
06:00−5˚nw3108529 0.0 1033369
09:00−5˚nw48860 0.0 1035348
12:00−1˚nw466722 0.0 1035530
15:00nw46625 0.0 1033618
18:00−3˚wnw34733 0.0 103390
21:00−4˚w36760 0.0 1033144
3 december, thu
thu300:00−4˚w36790 0.0 1032157
03:00−5˚w36850 0.0 1031149
06:00−5˚w36850 0.0 1029142
09:00−4˚w37740 0.0 1028174
12:00+2˚wnw35440 0.0 1026348
15:00+5˚w363813 0.0 1024429
18:00w34527 0.0 102447
21:00−1˚wnw33520 0.0 102349
4 december, fri
fri400:00−1˚w33510 0.0 102360
03:00−2˚wnw23500 0.0 102325
06:00−2˚w33480 0.0 102350
09:00−1˚w23460 0.0 102364
12:00+4˚w36330 0.0 1021329
15:00+6˚wnw37330 0.0 1020489
18:00+1˚wnw35550 0.0 102189
21:00−1˚wnw49700 0.0 1022227